Time,TemperatureF,DewpointF,PressureIn,WindDirection,WindDirectionDegrees,WindSpeedMPH,WindSpeedGustMPH,Humidity,HourlyPrecipIn,Conditions,Clouds,dailyrainin,SoftwareType,DateUTC
2013-01-06 15:12:00,60.0,33.0,30.28,NNE,21,6.0,-999.0,36,0.00,,,0.00,,2013-01-06 21:12:00,
2013-01-06 15:22:00,60.0,34.0,30.28,NE,50,9.0,-999.0,37,0.00,,,0.00,,2013-01-06 21:22:00,
2013-01-06 15:33:00,60.0,32.0,30.28,ENE,66,3.0,-999.0,35,0.00,,,0.00,,2013-01-06 21:33:00,
2013-01-06 15:42:00,60.0,32.0,30.28,ENE,66,3.0,-999.0,35,0.00,,,0.00,,2013-01-06 21:42:00,
2013-01-06 15:53:00,60.0,32.0,30.28,NNE,21,3.0,-999.0,35,0.00,,,0.00,,2013-01-06 21:53:00,
2013-01-06 16:02:00,61.0,33.0,30.27,NE,36,7.0,-999.0,35,0.00,,,0.00,,2013-01-06 22:02:00,
2013-01-06 16:12:00,61.0,33.0,30.27,NE,36,7.0,-999.0,35,0.00,,,0.00,,2013-01-06 22:12:00,
2013-01-06 16:22:00,61.0,34.0,30.28,NE,53,7.0,-999.0,36,0.00,,,0.00,,2013-01-06 22:22:00,
2013-01-06 16:33:00,61.0,32.0,30.28,NE,45,7.0,-999.0,34,0.00,,,0.00,,2013-01-06 22:33:00,
2013-01-06 16:43:00,61.0,32.0,30.28,NE,45,7.0,-999.0,34,0.00,,,0.00,,2013-01-06 22:43:00,
2013-01-06 16:53:00,61.0,34.0,30.29,NE,38,9.0,-999.0,36,0.00,,,0.00,,2013-01-06 22:53:00,
2013-01-06 17:02:00,60.0,33.0,30.28,NE,34,3.0,-999.0,36,0.00,,,0.00,,2013-01-06 23:02:00,
2013-01-06 17:12:00,60.0,33.0,30.28,NE,34,3.0,-999.0,36,0.00,,,0.00,,2013-01-06 23:12:00,
2013-01-06 17:22:00,60.0,34.0,30.29,ENE,57,7.0,-999.0,37,0.00,,,0.00,,2013-01-06 23:22:00,
2013-01-06 17:33:00,59.0,33.0,30.29,NNE,22,5.0,-999.0,37,0.00,,,0.00,,2013-01-06 23:33:00,
2013-01-06 17:42:00,59.0,33.0,30.29,NNE,22,5.0,-999.0,37,0.00,,,0.00,,2013-01-06 23:42:00,
2013-01-06 17:53:00,58.0,33.0,30.29,NNE,32,3.0,-999.0,38,0.00,,,0.00,,2013-01-06 23:53:00,
2013-01-06 18:02:00,57.0,33.0,30.29,NE,44,0.0,-999.0,40,0.00,,,0.00,,2013-01-07 00:02:00,
2013-01-06 18:12:00,57.0,33.0,30.29,NE,44,0.0,-999.0,40,0.00,,,0.00,,2013-01-07 00:12:00,
2013-01-06 18:23:00,56.0,33.0,30.30,NE,49,1.0,-999.0,42,0.00,,,0.00,,2013-01-07 00:23:00,
2013-01-06 18:32:00,52.0,33.0,30.30,NE,47,1.0,-999.0,48,0.00,,,0.00,,2013-01-07 00:32:00,
2013-01-06 18:42:00,52.0,33.0,30.30,NE,47,1.0,-999.0,48,0.00,,,0.00,,2013-01-07 00:42:00,
2013-01-06 18:53:00,52.0,33.0,30.30,NE,47,1.0,-999.0,48,0.00,,,0.00,,2013-01-07 00:53:00,
2013-01-06 19:02:00,50.0,33.0,30.31,NE,47,1.0,-999.0,51,0.00,,,0.00,,2013-01-07 01:02:00,
2013-01-06 19:12:00,50.0,33.0,30.31,NE,47,1.0,-999.0,51,0.00,,,0.00,,2013-01-07 01:12:00,
2013-01-06 19:22:00,44.0,33.0,30.32,NE,47,2.0,-999.0,65,0.00,,,0.00,,2013-01-07 01:22:00,
2013-01-06 19:32:00,44.0,33.0,30.32,NE,47,2.0,-999.0,66,0.00,,,0.00,,2013-01-07 01:32:00,
2013-01-06 19:42:00,44.0,33.0,30.32,NE,47,2.0,-999.0,66,0.00,,,0.00,,2013-01-07 01:42:00,
2013-01-06 19:53:00,44.0,33.0,30.32,NNE,33,1.0,-999.0,64,0.00,,,0.00,,2013-01-07 01:53:00,
2013-01-06 20:02:00,44.0,33.0,30.32,NNE,33,2.0,-999.0,65,0.00,,,0.00,,2013-01-07 02:02:00,
2013-01-06 20:12:00,44.0,33.0,30.32,NNE,33,2.0,-999.0,65,0.00,,,0.00,,2013-01-07 02:12:00,
2013-01-06 20:22:00,46.0,33.0,30.34,NNE,22,2.0,-999.0,60,0.00,,,0.00,,2013-01-07 02:22:00,
2013-01-06 20:32:00,46.0,33.0,30.34,North,5,2.0,-999.0,60,0.00,,,0.00,,2013-01-07 02:32:00,
2013-01-06 20:42:00,46.0,33.0,30.34,North,5,2.0,-999.0,60,0.00,,,0.00,,2013-01-07 02:42:00,
2013-01-06 20:53:00,46.0,33.0,30.35,North,5,3.0,-999.0,60,0.00,,,0.00,,2013-01-07 02:53:00,
2013-01-06 21:02:00,45.0,33.0,30.35,North,9,0.0,-999.0,62,0.00,,,0.00,,2013-01-07 03:02:00,
2013-01-06 21:12:00,45.0,33.0,30.35,North,9,0.0,-999.0,62,0.00,,,0.00,,2013-01-07 03:12:00,
2013-01-06 21:22:00,45.0,33.0,30.35,North,9,0.0,-999.0,62,0.00,,,0.00,,2013-01-07 03:22:00,
2013-01-06 21:33:00,45.0,34.0,30.35,North,9,3.0,-999.0,64,0.00,,,0.00,,2013-01-07 03:33:00,
2013-01-06 21:42:00,45.0,34.0,30.35,North,9,3.0,-999.0,64,0.00,,,0.00,,2013-01-07 03:42:00,
2013-01-06 21:53:00,45.0,34.0,30.35,North,11,2.0,-999.0,64,0.00,,,0.00,,2013-01-07 03:53:00,
2013-01-06 22:02:00,45.0,34.0,30.34,North,11,2.0,-999.0,64,0.00,,,0.00,,2013-01-07 04:02:00,
2013-01-06 22:12:00,45.0,34.0,30.34,North,11,2.0,-999.0,64,0.00,,,0.00,,2013-01-07 04:12:00,
2013-01-06 22:22:00,45.0,34.0,30.34,North,11,2.0,-999.0,65,0.00,,,0.00,,2013-01-07 04:22:00,
2013-01-06 22:32:00,45.0,34.0,30.34,North,360,4.0,-999.0,66,0.00,,,0.00,,2013-01-07 04:32:00,
2013-01-06 22:42:00,45.0,34.0,30.34,North,360,4.0,-999.0,66,0.00,,,0.00,,2013-01-07 04:42:00,
2013-01-06 22:52:00,44.0,34.0,30.34,North,355,3.0,-999.0,67,0.00,,,0.00,,2013-01-07 04:52:00,
2013-01-06 23:02:00,45.0,34.0,30.34,North,9,1.0,-999.0,66,0.00,,,0.00,,2013-01-07 05:02:00,
2013-01-06 23:12:00,45.0,34.0,30.34,North,9,1.0,-999.0,66,0.00,,,0.00,,2013-01-07 05:12:00,
2013-01-06 23:22:00,44.0,34.0,30.33,North,9,0.0,-999.0,67,0.00,,,0.00,,2013-01-07 05:22:00,
2013-01-06 23:33:00,44.0,34.0,30.33,North,9,0.0,-999.0,67,0.00,,,0.00,,2013-01-07 05:33:00,
2013-01-06 23:42:00,44.0,34.0,30.33,North,9,0.0,-999.0,67,0.00,,,0.00,,2013-01-07 05:42:00,
2013-01-06 23:53:00,43.0,33.0,30.33,North,9,0.0,-999.0,68,0.00,,,0.00,,2013-01-07 05:53:00,